KA6AKH-WX Weather Reports


time (UTC)temp
C
wind
direction
speed
KPH
gust
KPH
rain 1hr
cm
rain 24hr
cm
rain mn
cm
humidity
%
barometer
mb
20260901000127 27 346 0.0 0.0 0.00 0.30 0.00 77 1017.7
20260831235057 27 346 0.0 0.0 0.00 0.30 0.00 75 1017.7
20260831234057 28 346 0.0 0.0 0.00 0.30 0.00 74 1017.7
20260831233057 28 346 0.0 0.0 0.00 0.30 0.00 73 1017.6
20260831232057 28 346 0.0 0.0 0.00 0.30 0.00 73 1017.6
20260831231057 28 346 0.0 0.0 0.00 0.30 0.00 73 1017.7
20260831230057 28 346 0.0 0.0 0.00 0.30 0.00 73 1017.8
20260831225057 28 346 0.0 0.0 0.00 0.30 0.00 72 1017.9
20260831224057 28 346 0.0 0.0 0.00 0.30 0.00 71 1018.1
20260831223027 28 346 0.0 0.0 0.00 0.30 0.00 72 1018.1
20260831222027 28 346 0.0 0.0 0.00 0.30 0.00 71 1018.4
20260831221027 28 346 0.0 0.0 0.00 0.30 0.00 71 1018.3
20260831220027 28 346 0.0 0.0 0.00 0.30 0.00 70 1018.3
20260831213957 29 346 0.0 0.0 0.00 0.30 0.00 69 1018.4
20260831212957 29 346 0.0 0.0 0.00 0.30 0.00 68 1018.4
20260831211957 29 49 0.0 0.0 0.00 0.30 0.00 68 1018.2
20260831210957 29 49 0.0 0.0 0.00 0.30 0.00 68 1018.1
20260831205957 29 49 0.0 0.0 0.00 0.30 0.00 68 1018.1
20260831204959 30 49 0.0 0.0 0.00 0.30 0.00 67 1018.1
20260831203957 30 49 0.0 0.0 0.00 0.30 0.00 66 1018.2
20260831201956 30 49 0.0 0.0 0.00 0.30 0.00 65 1018.2
20260831200956 30 167 0.0 0.0 0.00 0.30 0.00 66 1018.2
20260831195956 30 167 0.0 0.0 0.00 0.30 0.00 66 1018.2
20260831194956 30 167 0.0 0.0 0.00 0.30 0.00 66 1018.2
20260831193956 30 167 0.0 0.0 0.00 0.30 0.00 66 1018.1
20260831192957 30 167 0.0 0.0 0.00 0.30 0.00 64 1018.4
20260831191956 30 167 0.0 0.0 0.00 0.30 0.00 63 1018.6
20260831190957 30 167 0.0 0.0 0.00 0.30 0.00 64 1018.7
20260831185926 30 167 0.0 0.0 0.00 0.30 0.00 63 1018.7
20260831184926 30 167 0.0 0.0 0.00 0.30 0.00 64 1018.8
20260831183927 30 167 0.0 0.0 0.00 0.30 0.00 63 1018.7
20260831182926 30 167 0.0 0.0 0.00 0.30 0.00 61 1018.8
20260831181926 30 167 0.0 0.0 0.00 0.30 0.00 61 1018.8
20260831175926 30 167 0.0 0.0 0.00 0.30 0.00 62 1018.8
20260831174926 30 10 0.0 0.0 0.00 0.30 0.00 67 1018.8
20260831173926 30 51 0.0 0.0 0.00 0.30 0.00 67 1019.1
20260831172926 30 51 0.0 0.0 0.00 0.30 0.00 66 1019.1
20260831171926 30 51 0.0 0.0 0.00 0.30 0.00 66 1019.1
20260831165926 29 49 0.0 0.0 0.00 0.30 0.00 70 1019.5
20260831164926 29 49 0.0 0.0 0.00 0.30 0.00 70 1019.5
20260831163926 28 43 0.0 1.6 0.00 0.30 0.00 71 1019.6
20260831162926 28 336 0.0 0.0 0.00 0.30 0.00 71 1019.7
20260831160926 28 69 0.0 0.0 0.00 0.30 0.00 70 1019.8
20260831155926 28 69 0.0 0.0 0.00 0.30 0.00 72 1019.5
20260831154926 28 73 3.2 3.2 0.00 0.30 0.00 72 1019.4
20260831153925 28 71 0.0 0.0 0.00 0.30 0.00 74 1019.4
20260831152925 27 68 0.0 0.0 0.00 0.30 0.00 76 1019.4
20260831151926 27 99 0.0 0.0 0.00 0.30 0.00 78 1019.6
20260831150926 27 64 0.0 0.0 0.00 0.30 0.00 78 1019.7
20260831145925 27 99 0.0 0.0 0.00 0.30 0.00 79 1019.8
20260831143925 26 192 0.0 0.0 0.00 0.30 0.00 82 1019.4
20260831142925 26 82 0.0 0.0 0.00 0.30 0.00 81 1019.3
20260831141925 26 144 0.0 0.0 0.00 0.30 0.00 82 1019.3
20260831140925 26 79 0.0 0.0 0.00 0.30 0.00 84 1019.4
20260831135925 25 64 1.6 3.2 0.00 0.30 0.00 86 1019.5
20260831134926 25 87 3.2 3.2 0.00 0.30 0.00 88 1019.5
20260831133926 24 18 0.0 0.0 0.00 0.30 0.00 93 1019.6
20260831131925 23 18 0.0 0.0 0.00 0.30 0.00 96 1019.6
20260831130926 23 18 0.0 0.0 0.00 0.30 0.00 97 1019.8
20260831125925 23 18 0.0 0.0 0.00 0.30 0.00 97 1019.7
20260831124925 23 18 0.0 0.0 0.00 0.30 0.00 97 1019.6
20260831123925 23 18 0.0 0.0 0.00 0.30 0.00 97 1019.5
20260831122925 22 18 0.0 0.0 0.00 0.30 0.00 97 1019.5
20260831121925 22 18 0.0 0.0 0.00 0.30 0.00 97 1019.5
20260831120925 22 18 0.0 0.0 0.00 0.30 0.00 97 1019.4
20260831115925 22 18 0.0 0.0 0.00 0.30 0.00 97 1019.3
20260831114925 22 18 0.0 0.0 0.00 0.30 0.00 97 1019.3
20260831113925 22 18 0.0 0.0 0.00 0.30 0.00 97 1019.1
20260831112925 22 18 0.0 0.0 0.00 0.30 0.00 97 1018.9
20260831111925 22 18 0.0 0.0 0.00 0.30 0.00 97 1018.9
20260831110925 22 18 0.0 0.0 0.00 0.30 0.00 97 1018.9
20260831110749 21 18 0.0 0.0 0.00 0.30 0.00 97 1018.8
20260831105925 21 18 0.0 0.0 0.00 0.30 0.00 97 1018.8
20260831104925 21 18 0.0 0.0 0.00 0.30 0.00 97 1018.6
20260831103925 21 18 0.0 0.0 0.00 0.30 0.00 97 1018.4
20260831102925 21 18 0.0 0.0 0.00 0.30 0.00 97 1018.4
20260831101925 21 18 0.0 0.0 0.00 0.30 0.00 97 1018.4
20260831095924 22 18 0.0 0.0 0.00 0.30 0.00 97 1018.4
20260831094925 22 18 0.0 0.0 0.00 0.30 0.00 97 1018.3
20260831093855 22 18 0.0 0.0 0.00 0.30 0.00 97 1018.4
20260831092854 22 18 0.0 0.0 0.00 0.30 0.00 97 1018.4
20260831091854 22 18 0.0 0.0 0.00 0.30 0.00 97 1018.4
20260831090854 22 18 0.0 0.0 0.00 0.30 0.00 97 1018.5
20260831085854 22 18 0.0 0.0 0.00 0.30 0.00 97 1018.4
20260831084854 22 18 0.0 0.0 0.00 0.30 0.00 97 1018.1
20260831083854 22 18 0.0 0.0 0.00 0.30 0.00 97 1018.3
20260831082854 22 18 0.0 0.0 0.00 0.30 0.00 97 1018.2
20260831081854 22 18 0.0 0.0 0.00 0.30 0.00 97 1018.2
20260831080854 22 18 0.0 0.0 0.00 0.30 0.00 97 1018.1
20260831075854 22 18 0.0 0.0 0.00 0.30 0.00 97 1018.1
20260831074854 22 18 0.0 0.0 0.00 0.30 0.00 97 1018.1
20260831073854 22 18 0.0 0.0 0.00 0.30 0.00 97 1018.0
20260831072854 22 18 0.0 0.0 0.00 0.30 0.00 97 1017.9
20260831071854 22 18 0.0 0.0 0.00 0.30 0.00 97 1018.0
20260831070854 22 18 0.0 0.0 0.00 0.30 0.00 96 1018.1
20260831065854 22 18 0.0 0.0 0.00 0.30 0.00 96 1018.2
20260831064854 22 18 0.0 0.0 0.00 0.30 0.00 96 1018.3
20260831063855 22 18 0.0 0.0 0.00 0.30 0.00 96 1018.4
20260831062854 22 18 0.0 0.0 0.00 0.30 0.00 96 1018.4
20260831061854 22 18 0.0 0.0 0.00 0.30 0.00 96 1018.5
20260831060854 22 18 0.0 0.0 0.00 0.30 0.00 96 1018.5
20260831055854 22 18 0.0 0.0 0.00 0.30 0.00 96 1018.7
20260831054824 22 18 0.0 0.0 0.00 0.30 0.00 96 1018.6
20260831053824 22 18 0.0 0.0 0.00 0.30 0.00 96 1018.5
20260831050824 22 18 0.0 0.0 0.00 0.30 0.00 96 1018.7
20260831045824 22 18 0.0 0.0 0.00 0.30 0.00 96 1018.8
20260831044824 22 18 0.0 0.0 0.00 0.30 0.00 96 1018.8
20260831043754 22 18 0.0 0.0 0.00 0.30 0.00 96 1018.8
20260831042755 22 18 0.0 0.0 0.00 0.30 0.00 96 1018.9
20260831041724 22 18 0.0 0.0 0.00 0.30 0.00 96 1019.1
20260831040724 23 18 0.0 0.0 0.00 0.30 0.00 96 1018.9
20260831035723 23 18 0.0 0.0 0.00 0.30 0.30 96 1019.0
20260831034724 22 18 0.0 0.0 0.00 0.30 0.30 96 1019.0
20260831032724 22 18 0.0 0.0 0.00 0.30 0.30 96 1018.7
20260831031724 22 18 0.0 0.0 0.00 0.30 0.30 96 1018.8
20260831030723 22 18 0.0 0.0 0.00 0.30 0.30 96 1018.8
20260831025723 22 18 0.0 0.0 0.00 0.30 0.30 96 1018.9
20260831024724 22 18 0.0 0.0 0.00 0.30 0.30 96 1019.0
20260831023724 22 18 0.0 0.0 0.00 0.30 0.30 96 1019.1
20260831022724 22 18 0.0 0.0 0.00 0.30 0.30 96 1019.3
20260831020725 22 18 0.0 0.0 0.00 0.30 0.30 96 1019.3
20260831014723 23 18 0.0 0.0 0.00 0.30 0.30 96 1019.4
20260831013723 23 18 0.0 0.0 0.00 0.30 0.30 95 1019.3
20260831012723 23 18 0.0 0.0 0.00 0.30 0.30 95 1019.2
20260831011725 22 18 0.0 0.0 0.30 0.30 0.30 95 1019.1
20260831010723 22 18 0.0 0.0 0.30 0.30 0.30 95 1019.1
20260831010129 22 18 0.0 0.0 0.30 0.30 0.30 94 1019.1
20260831005723 22 18 0.0 0.0 0.30 0.30 0.30 94 1019.1
20260831004723 22 18 0.0 0.0 0.30 0.30 0.30 94 1019.1
20260831003653 22 18 0.0 0.0 0.30 0.30 0.30 91 1019.3
20260831002653 23 18 0.0 0.0 0.30 0.30 0.30 88 1019.8